sat.trackr.live / text

‹ back to catalog

BADR-4

NORAD 29526 · 2006-051A

PAYLOAD ACTIVE UNKNOWN

§ Identity

Operator
Country
AB
Launch date
2006-11-08
Launch site
TYMSC
Launch vehicle
Mass (kg)
RCS (m²)
0.00

Purposes: comms

External: N2YO · Heavens-Above · Gunter

§ Orbital elements

Epoch: 2026-09-15T22:28:10.106976Z

Period
1,436.10 min
Inclination
2.2327°
Eccentricity
0.0004836
Mean motion
1.00271799 rev/d
Perigee alt
35,766.2 km
Apogee alt
35,807.0 km
Semi-major
42,164.7 km
B*
0.0000e+0
RAAN
80.0118°
Arg perigee
92.9720°
Mean anomaly
193.4316°
Rev number
5,217

§ Raw data

BADR-41 29526U 06051A   26258.93622809  .00000150  00000+0  00000+0 0  99922 29526   2.2327  80.0118 0004836  92.9720 193.4316  1.00271799 52178

JSON: /api/v1/satellites/29526 · /tle

For live sub-satellite position, see the globe view (requires WebGL).

§ Visibility from observer

Set your observer location to see the next 7 days of passes ≥ 10°. The values pass through the URL so the page stays shareable.

No JS? Fill the form by hand. The geolocation button needs JavaScript.